Location: Napa Junction
(38.1874°N, 122.2508°W)
Time: 13:16:12
(UTC+00:00)

Daily predictions for brighter satellites

Satellite Brightness Start Highest point End
(mag) Time Altitude Azimuth Time Altitude Azimuth Time Altitude Azimuth
IRAS Rocket 4.1 12:00:44 10° NNE 12:06:19 76° WNW 12:09:48 24° SSW
Cosmos 1544 Rocket 3.5 12:05:54 47° SW 12:06:51 59° W 12:11:09 10° N
Cosmos 2237 4.1 12:04:01 10° NNW 12:09:40 66° WSW 12:15:16 10° S
IRS-1D 3.6 12:05:19 10° NNE 12:10:40 85° ESE 12:15:43 11° SSW
Cosmos 1833 4.3 12:10:47 15° SSW 12:15:27 77° ESE 12:21:11 10° NNE
Cosmos 1821 Rocket 4.2 12:10:29 10° NNW 12:16:14 45° W 12:21:58 10° SSW
Cosmos 1339 Rocket 4.4 12:13:15 10° S 12:19:20 86° W 12:25:26 10° N
Cosmos 1190 Rocket 3.9 12:16:38 18° SSW 12:20:32 84° WNW 12:25:44 10° NNE
ALOS 4.3 12:19:07 10° NW 12:20:20 12° NW 12:20:20 12° NW
Cosmos 540 Rocket 4.4 12:16:09 10° N 12:21:06 49° ENE 12:26:03 10° SE
Cosmos 1763 Rocket 3.7 12:19:53 10° NNW 12:25:01 74° ENE 12:30:12 10° SSE
Lacrosse 5 rocket 4.0 12:25:32 10° SE 12:26:06 10° ESE 12:26:41 10° ESE
SL-16 R/B 3.7 12:28:59 20° W 12:28:59 20° W 12:32:55 10° NW
Okean 1-7 Rocket 3.5 12:24:55 10° N 12:29:25 90° ENE 12:33:51 10° S
Cosmos 2360 Rocket 2.3 12:29:20 10° NNW 12:34:58 78° ENE 12:40:34 10° SSE
Cosmos 1606 Rocket 3.8 12:31:16 10° S 12:35:32 70° E 12:39:53 10° NNE
Cosmos 676 Rocket 4.1 12:30:48 10° SSW 12:35:56 80° ESE 12:41:08 10° NNE
Cosmos 1812 3.0 12:33:44 10° S 12:37:10 60° E 12:40:39 10° NNE
Nadezhda 3 Rocket 4.5 12:32:48 16° SW 12:37:17 39° WNW 12:43:05 10° N
NOSS 3-2 (A) 3.2 12:35:01 10° SSW 12:39:56 77° ESE 12:45:43 10° NE
YAOGAN 6 3.7 12:38:03 10° NNW 12:40:25 20° WNW 12:40:27 20° WNW
COSMOS 2455 3.4 12:37:47 19° WSW 12:41:44 41° NW 12:47:25 10° NNE
Cosmos 2322 Rocket 2.1 12:38:03 10° NNW 12:43:42 69° WSW 12:49:17 10° SSE
Cosmos 2151 4.4 12:41:53 10° N 12:45:48 40° E 12:49:42 10° SSE
Cosmos 1605 Rocket 4.3 12:39:55 10° N 12:46:12 71° E 12:52:21 10° SSE
Cosmos 2251 Rocket 4.4 12:43:59 17° WSW 12:47:07 30° WNW 12:51:46 10° N
CZ-2C R/B 3.5 12:45:02 10° NNW 12:49:00 26° WNW 12:51:54 15° WSW
ISS -2.5 12:47:57 20° WSW 12:49:03 23° SW 12:51:49 10° S
ATLAS 5 CENTAUR R/B 2.7 12:46:51 10° S 12:49:39 28° ESE 12:52:33 10° NE
JB-3 4.3 12:46:42 10° SSE 12:50:29 81° ENE 12:54:22 10° N
Cosmos 2333 Rocket 2.2 12:45:11 10° NNW 12:50:55 80° WSW 12:56:35 10° SSE
Cosmos 2228 4.3 12:50:56 16° WSW 12:52:45 21° WNW 12:55:59 10° NNW
Cosmos 2219 Rocket 2.9 12:50:28 10° NNW 12:56:03 60° ENE 13:01:33 10° SE
Cosmos 1535 Rocket 4.5 12:50:21 10° N 12:56:40 81° W 13:02:50 10° S
Cosmos 1862 4.1 12:53:43 10° NNW 12:56:56 27° W 13:00:08 10° SSW
CENTAUR R/B 2.7 12:52:15 13° WSW 12:56:58 49° NW 13:03:30 10° NNE
ARGOS 3.3 12:53:17 10° NNE 12:58:39 80° ESE 13:04:00 10° S
Cosmos 1602 Rocket 4.1 12:56:17 10° NNW 13:00:24 37° W 13:04:29 10° SSW
H-2A R/B 4.0 12:59:44 10° NNE 13:02:28 33° E 13:05:09 10° SSE
Cosmos 1954 Rocket 4.3 12:58:13 10° SW 13:03:08 45° WNW 13:08:07 10° N
SL-16 R/B 3.0 12:58:31 10° NW 13:03:12 27° WSW 13:07:53 10° SSW
SJ 16-02 3.4 13:02:36 10° SSE 13:06:27 31° E 13:10:17 10° NE
H-2A R/B 2.8 13:02:50 10° N 13:07:41 36° WNW 13:12:35 10° SW
USA 215 3.3 13:02:26 10° SE 13:08:58 74° SW 13:15:32 10° NW
Cosmos 1939 Rocket 3.1 13:06:33 10° N 13:10:22 47° WNW 13:14:10 10° SSW
Cosmos 1867 3.6 13:05:53 10° SW 13:11:18 70° WNW 13:16:47 10° NNE
Cosmos 2084 3.5 13:07:12 10° SW 13:11:21 56° NW 13:15:21 10° NNE
SeaSat 1 3.9 13:10:19 10° SW 13:12:59 15° WSW 13:15:40 10° WNW
SKYMED 2 4.2 13:11:21 10° SSE 13:15:37 62° ENE 13:19:55 10° N
DELTA 2 R/B (1) 3.7 13:12:43 10° W 13:18:18 78° N 13:23:52 10° E
Meteor 2-13 Rocket 4.5 13:13:04 10° SSW 13:19:12 76° W 13:25:20 10° N
CZ-3 R/B 3.3 13:07:11 10° WSW 13:24:28 43° S 13:30:22 10° ESE
